METAR Formatted Surface Weather Observation
Issued by NWS Albuquerque, NM

Home | Current Version | Previous Version | Text Only | Print | Product List | Glossary On
Versions: 1 2 3 4 5 6 7 8 9 10 11 12 13 14 15 16 17 18 19 20 21 22 23 24 25 26 27 28 29 30 31 32 33 34 35 36 37 38 39 40 41 42 43 44 45 46 47 48 49 50
000
SAUS45 KABQ 252153
MTRABQ
METAR KABQ 252152Z 08003KT 10SM SCT070 BKN120 BKN250 20/05 A2997 RMK
AO2 PK WND 29037/2057 LTG DSNT SE AND W AND NW RAB2055E29 TSB2058E13
SLP091 CB DSNT ALQDS SHRA DSNT ALQDS P0004 T02000050



USA.gov is the U.S. government's official web portal to all federal, state and local government web resources and services.